Flag for Spain Weather past 2 weeks in Granada, Spain

Now
53 °F

Cool.


Feels Like: 53 °F
Forecast: 50 / 80 °F
Wind: No wind

Location: Granada / Aeropuerto

Current Time: Apr 2, 2015 at 2:57:28 AM

Latest Report: Apr 2, 2015 at 2:00 AM


Visibility: 19 mi

Pressure: 30.26 "Hg

Humidity: 74%

Dew point: 45 °F

Location of GranadaLocation

Historic Weather in Granada — Graph

°F

Granada temperature yesterday

Maximum temperature yesterday: 86 °F (at 4:00 PM)
Minimum temperature yesterday: 46 °F (at 8:00 AM)
Average temperature yesterday: 66 °F

Past Weeks' High & Low Weather Summary

 TemperatureHumidityPressure
High88 °F (Mar 31, 5:00 PM)99% (Mar 19, 3:00 AM)30.40 "Hg (Mar 19, 3:00 AM)
Low29 °F (Mar 26, 5:00 AM)22% (Mar 30, 7:00 PM)29.56 "Hg (Mar 24, 2:00 AM)
Average54 °F71%29.99 "Hg
* Reported Midnight between Mar 17 and Mar 18 — Apr 2 1:00 AM, Granada, Weather by CustomWeather, © 2015

Note: Actual official high and low records may vary slightly from our data, if they occured in-between our weather recording intervals... More about our weather records

Advertising

Granada weather history for previous 24 hours

 ConditionsComfort  
Time TempWeatherWind HumidityBarometerVisibility
1:00 AM
Thu, Apr 2
56 °FCool.No wind67%30.25 "Hg11 mi
12:00 AM59 °FFog.1 mph62%30.24 "Hg19 mi
10:00 PM
Wed, Apr 1
66 °FMild.2 mph48%30.18 "Hg19 mi
9:00 PM72 °FMild.6 mph42%30.13 "Hg19 mi
8:00 PM79 °FPassing clouds.8 mph33%30.09 "Hg19 mi
7:00 PM83 °FPleasantly warm.12 mph29%30.06 "Hg19 mi
6:00 PM84 °FPleasantly warm.12 mph29%30.06 "Hg19 mi
5:00 PM86 °FPassing clouds.3 mph23%30.07 "Hg19 mi
4:00 PM86 °FPleasantly warm.8 mph27%30.08 "Hg19 mi
3:00 PM85 °FSunny.5 mph28%30.10 "Hg19 mi
2:00 PM82 °FSunny.1 mph29%30.14 "Hg19 mi
1:00 PM78 °FPleasantly warm.1 mph36%30.17 "Hg19 mi
12:00 PM70 °FMild.2 mph46%30.22 "Hg9 mi
11:00 AM64 °FPassing clouds.No wind54%30.25 "Hg12 mi
10:00 AM59 °FCool.No wind63%30.28 "Hg17 mi
9:00 AM51 °FPassing clouds.No wind81%30.32 "Hg12 mi
8:00 AM46 °FClear.No wind87%30.32 "Hg12 mi
7:00 AM47 °FCool.No wind86%30.29 "Hg19 mi
6:00 AM49 °FCool.2 mph81%30.29 "Hg19 mi
5:00 AM50 °FCool.No wind81%30.29 "Hg19 mi
4:00 AM52 °FCool.No wind75%30.29 "Hg19 mi
3:00 AM54 °FCool.3 mph71%30.29 "Hg19 mi
2:00 AM55 °FCool.1 mph69%30.29 "Hg19 mi
Weather by CustomWeather, © 2015

See weather overviewHow to use our weather pages